Franklin, NC

5:35 AM EST on January 19, 2018 (GMT -0500)
Franklin

Weather History for K1A5 - August, 2014

Change the Weather History Date:

Thursday, August 21, 2014

  Actual Average (KTOC) Record (KTOC)
Temperature  
Mean Temperature 74 °F -  
Max Temperature 85 °F 87 °F 97 °F (2014)
Min Temperature 62 °F 66 °F 68 °F (2014)
Cooling Degree Days 8    
Growing Degree Days 24 (Base 50)    
Moisture  
Dew Point 64 °F    
Average Humidity 84    
Maximum Humidity 100    
Minimum Humidity 48    
Precipitation  
Precipitation 0.00 in - - ()
Sea Level Pressure  
Sea Level Pressure 30.21 in    
Wind  
Wind Speed 1 mph (NNW)    
Max Wind Speed 8 mph    
Max Gust Speed -    
Visibility 9 miles    
Events      
Averages and records for this station are not official NWS values.
T = Trace of Precipitation, MM = Missing Value Source: NWS Daily Summary

Daily Weather History Graph

Daily Weather History Graph

Search for Another Location

Airport or City:

Trip Planner

Search our weather history database for the weather conditions in past years. The results will help you decide how hot, cold, wet, or windy it might be!

Date:

Astronomy

Aug. 21, 2014 Rise Set
Actual Time 6:57 AM EDT 8:15 PM EDT
Civil Twilight 6:31 AM EDT 8:41 PM EDT
Nautical Twilight 5:59 AM EDT 9:13 PM EDT
Astronomical Twilight 5:26 AM EDT 9:45 PM EDT
Moon 3:31 AM EDT (8/21) 5:40 PM EDT (8/21)
Length of Visible Light 14h 10m
Length of Day
13h 17m
Waning Crescent, 13% of the Moon is Illuminated
Aug 21
Waning Crescent
Aug 25
New
Sep 2
First Quarter
Sep 8
Full
Sep 15
Last Quarter

Hourly Weather History & Observations

Time (EDT) Temp. Heat Index Dew Point Humidity Pressure Visibility Wind Dir Wind Speed Gust Speed Precip Events Conditions
12:15 AM 64.0 °F - 64.0 °F 100% 30.22 in 4.0 mi Calm Calm - N/A   Mist
12:35 AM 63.7 °F - 63.7 °F 100% 30.22 in 4.0 mi Calm Calm - N/A   Mist
12:55 AM 63.5 °F - 63.5 °F 100% 30.22 in 7.0 mi Calm Calm - N/A   Unknown
1:15 AM 63.7 °F - 63.7 °F 100% 30.22 in 10.0 mi Calm Calm - N/A   Unknown
1:35 AM 62.8 °F - 62.8 °F 100% 30.22 in 10.0 mi Calm Calm - N/A   Unknown
1:55 AM 62.6 °F - 62.6 °F 100% 30.21 in 7.0 mi Calm Calm - N/A   Unknown
2:15 AM 62.8 °F - 62.8 °F 100% 30.21 in 7.0 mi Calm Calm - N/A   Unknown
2:35 AM 63.0 °F - 63.0 °F 100% 30.20 in 7.0 mi Calm Calm - N/A   Unknown
2:55 AM 63.1 °F - 63.1 °F 100% 30.20 in 7.0 mi Calm Calm - N/A   Unknown
3:15 AM 63.5 °F - 63.5 °F 100% 30.20 in 10.0 mi Calm Calm - N/A   Unknown
3:35 AM 63.3 °F - 63.3 °F 100% 30.20 in 10.0 mi Calm Calm - N/A   Unknown
3:55 AM 63.5 °F - 63.5 °F 100% 30.20 in 10.0 mi Calm Calm - N/A   Unknown
4:15 AM 63.5 °F - 63.5 °F 100% 30.20 in 10.0 mi Calm Calm - N/A   Unknown
4:35 AM 63.0 °F - 63.0 °F 100% 30.20 in 10.0 mi Calm Calm - N/A   Unknown
4:55 AM 63.0 °F - 63.0 °F 100% 30.20 in 10.0 mi Calm Calm - N/A   Unknown
5:15 AM 63.0 °F - 63.0 °F 100% 30.20 in 10.0 mi Calm Calm - N/A   Unknown
5:35 AM 62.8 °F - 62.8 °F 100% 30.20 in 10.0 mi Calm Calm - N/A   Unknown
5:55 AM 62.8 °F - 62.8 °F 100% 30.21 in 10.0 mi Calm Calm - N/A   Unknown
6:15 AM 63.0 °F - 63.0 °F 100% 30.21 in 10.0 mi Calm Calm - N/A   Unknown
6:35 AM 62.8 °F - 62.8 °F 100% 30.22 in 10.0 mi Calm Calm - N/A   Unknown
6:55 AM 62.8 °F - 62.8 °F 100% 30.23 in 7.0 mi Calm Calm - N/A   Unknown
7:15 AM 63.0 °F - 63.0 °F 100% 30.24 in 10.0 mi Calm Calm - N/A   Unknown
7:35 AM 63.1 °F - 63.1 °F 100% 30.25 in 10.0 mi Calm Calm - N/A   Unknown
7:55 AM 63.1 °F - 63.1 °F 100% 30.25 in 10.0 mi Calm Calm - N/A   Unknown
8:15 AM 63.3 °F - 63.3 °F 100% 30.25 in 10.0 mi Calm Calm - N/A   Unknown
8:35 AM 63.0 °F - 63.0 °F 100% 30.25 in 10.0 mi Calm Calm - N/A   Unknown
8:55 AM 63.5 °F - 63.5 °F 100% 30.26 in 10.0 mi Calm Calm - N/A   Unknown
9:15 AM 63.7 °F - 63.7 °F 100% 30.26 in 10.0 mi Calm Calm - N/A   Unknown
9:55 AM 64.8 °F - 63.3 °F 95% 30.25 in 10.0 mi Calm Calm - N/A   Unknown
10:15 AM 65.5 °F - 63.1 °F 92% 30.25 in 10.0 mi NE 3.5 mph - N/A   Unknown
10:35 AM 66.6 °F - 63.5 °F 90% 30.25 in 10.0 mi Calm Calm - N/A   Unknown
10:55 AM 67.5 °F - 63.7 °F 88% 30.25 in 10.0 mi Calm Calm - N/A   Unknown
11:15 AM 68.5 °F - 63.5 °F 84% 30.25 in 10.0 mi Calm Calm - N/A   Unknown
11:35 AM 70.9 °F - 63.7 °F 78% 30.25 in 10.0 mi Calm Calm - N/A   Unknown
11:55 AM 72.1 °F - 64.6 °F 77% 30.25 in 10.0 mi Calm Calm - N/A   Unknown
12:15 PM 75.0 °F - 65.7 °F 73% 30.24 in 10.0 mi Calm Calm - N/A   Unknown
12:35 PM 78.4 °F - 66.9 °F 68% 30.24 in 10.0 mi West 3.5 mph - N/A   Unknown
1:15 PM 81.5 °F 83.9 °F 67.1 °F 61% 30.24 in 10.0 mi NNE 8.1 mph - N/A   Unknown
1:35 PM 82.6 °F 84.9 °F 66.4 °F 58% 30.23 in 10.0 mi WNW 5.8 mph - N/A   Unknown
1:55 PM 83.8 °F 85.8 °F 65.5 °F 54% 30.23 in 10.0 mi North 8.1 mph - N/A   Unknown
2:15 PM 84.2 °F 86.1 °F 65.3 °F 53% 30.22 in 10.0 mi NNE 4.6 mph - N/A   Unknown
2:35 PM 84.4 °F 86.1 °F 64.8 °F 52% 30.22 in 10.0 mi NNW 5.8 mph - N/A   Unknown
2:55 PM 83.7 °F 85.1 °F 64.6 °F 52% 30.21 in 10.0 mi NW 4.6 mph - N/A   Unknown
3:15 PM 83.5 °F 85.1 °F 64.8 °F 53% 30.21 in 10.0 mi NW 6.9 mph - N/A   Unknown
3:35 PM 85.1 °F 86.6 °F 64.8 °F 50% 30.20 in 10.0 mi NNW 5.8 mph - N/A   Unknown
3:55 PM 85.5 °F 87.6 °F 66.0 °F 52% 30.18 in 10.0 mi West 6.9 mph - N/A   Unknown
4:15 PM 83.7 °F 84.9 °F 63.7 °F 51% 30.18 in 10.0 mi NNW 4.6 mph - N/A   Unknown
4:35 PM 85.1 °F 86.6 °F 64.4 °F 50% 30.18 in 10.0 mi Calm Calm - N/A   Unknown
4:55 PM 84.6 °F 86.6 °F 65.7 °F 53% 30.18 in 10.0 mi WNW 4.6 mph - N/A   Unknown
5:15 PM 84.6 °F 86.3 °F 64.9 °F 52% 30.17 in 10.0 mi NW 4.6 mph - N/A   Unknown
5:35 PM 84.9 °F 86.8 °F 65.7 °F 52% 30.17 in 10.0 mi North 4.6 mph - N/A   Unknown
6:15 PM 84.2 °F 85.8 °F 64.9 °F 52% 30.17 in 10.0 mi WNW 3.5 mph - N/A   Unknown
6:35 PM 84.2 °F 85.2 °F 63.3 °F 49% 30.18 in 10.0 mi NNW 4.6 mph - N/A   Unknown
6:55 PM 83.1 °F 83.7 °F 61.3 °F 48% 30.18 in 10.0 mi North 3.5 mph - N/A   Unknown
7:15 PM 82.4 °F 83.4 °F 62.4 °F 51% 30.18 in 10.0 mi Calm Calm - N/A   Unknown
7:35 PM 76.3 °F - 68.4 °F 76% 30.19 in 10.0 mi Calm Calm - N/A   Unknown
7:55 PM 75.4 °F - 67.5 °F 76% 30.19 in 10.0 mi WSW 3.5 mph - N/A   Unknown
8:15 PM 73.2 °F - 67.1 °F 81% 30.18 in 10.0 mi Calm Calm - N/A   Unknown
8:35 PM 71.1 °F - 67.3 °F 88% 30.20 in 10.0 mi Calm Calm - N/A   Unknown
8:55 PM 69.8 °F - 68.2 °F 95% 30.20 in 10.0 mi Calm Calm - N/A   Unknown
9:15 PM 68.9 °F - 68.9 °F 100% 30.20 in 10.0 mi Calm Calm - N/A   Unknown
9:35 PM 67.3 °F - 67.3 °F 100% 30.20 in 7.0 mi Calm Calm - N/A   Unknown
9:55 PM 67.1 °F - 67.1 °F 100% 30.21 in 7.0 mi Calm Calm - N/A   Unknown
10:15 PM 66.6 °F - 66.6 °F 100% 30.21 in 7.0 mi Calm Calm - N/A   Unknown
10:35 PM 66.0 °F - 66.0 °F 100% 30.22 in 7.0 mi Calm Calm - N/A   Unknown
10:55 PM 65.5 °F - 65.5 °F 100% 30.22 in 10.0 mi Calm Calm - N/A   Unknown
11:15 PM 65.1 °F - 65.1 °F 100% 30.22 in 7.0 mi Calm Calm - N/A   Unknown
11:35 PM 64.4 °F - 64.4 °F 100% 30.23 in 7.0 mi Calm Calm - N/A   Unknown